星链-3730 (STARLINK-3730 )

导读

STARLINK-3730是美国SpaceX公司星链(Starlink)星座的成员卫星,于2022年3月19日成功发射。星链项目旨在构建全球覆盖的低轨卫星互联网,为偏远地区提供高速宽带服务。该卫星运行于近地轨道,属于星链一代组网卫星,配备相控阵天线与太阳能供电系统,设计寿命约5-7年,退役后会主动离轨再入大气层,减少空间碎片影响,是星链大规模星座部署中的一部分。

Basic Information
目录编号:
52139
目录名称:
STARLINK-3730
国际标识:
2022-029BD
轨道中心:
EARTH
卫星名称:
星链-3730
卫星全名:
星链-3730 (STARLINK-3730 )
卫星状态:
在轨 (已飞行1630 天)
发射日期:
2022-03-19 UTC
国别 :
美国 (US)
星等 :
--
Orbit Information
数据来源 国际轨道数据
星历时间: 2026-09-01T21:57:08+0800
2天前
查看轨道信息
半长轴: 6840.885km
偏心率: 0.0001124
轨道倾角: 53.162°
近地点辐角 90.427°
升交点赤经 357.815°
平近点角 269.686°
近地点: 461.979km
远地点: 463.517km
周期: 93.849分钟
每日圈数: 15.343851
Detailed Information
固有亮度:
5
最大亮度:
2.5
卫星平台:
Starlink v1.5
覆盖范围:
全球
运营商:
太空探索技术公司
运营商所在国:
美国
制造商(研发单位):
太空探索技术公司
制造商所在国:
美国
使用方式:
暂无
Satellite Introduction
星链(Starlink)计划是由太空探索技术公司(SpaceX)提出的一个巨型低轨卫星互联网星座项目,计划在2019年至2024年间在太空搭建由约1.2万颗卫星组成的“星链”网络,其中1584颗将部署在地球上空550千米处的近地轨道,并从2020年开始工作。该卫星仍在工作。
2D Orbit Map
3D Orbit Map
Orbit Altitude Analysis Chart
Orbit Inclination Analysis Chart
Orbit Comprehensive Analysis Chart
View Comprehensive Chart
Conjunction Data List
Event ID Objects TCA Miss Dist (km) Collision Risk Probability Collision Risk Index (CRI) Action
CDM_260904-173605-213906-383521
HERMES-3 (63835)
2026-09-04T
17:36:44+0000
0.332 km
远距离
4.372051E-4 高风险 0.88
CDM_260903-171705-213905-504824
2026-09-03T
17:17:19+0000
0.789 km
远距离
3.939627E-5 中风险 0.67
CDM_260904-091605-213905-703122
2026-09-04T
09:16:20+0000
1.697 km
极远距离
2.54447E-6 低风险 0.43